Theta_e
307 308 310 309 308 307 305 304 304 304 303 303 303 303 302 302 303 302 299 303 300 292 293 297 297 293 294 293 287 293 291 292 291 285 286 286 285 288 286 292 290 289 289 288 289 288 286 295 300 297 302 309 311 313
307 308 309 308 307 306 305 304 303 303 303 303 303 302 301 302 303 303 297 302 309 295 294 301 301 303 301 299 295 295 291 291 288 286 289 288 286 289 288 287 295 288 291 288 287 286 293 298 296 301 310 309 309 310
307 309 309 307 306 305 304 303 302 302 302 302 301 301 302 303 303 302 298 300 301 294 293 298 297 303 308 306 305 294 295 295 290 291 288 289 286 290 286 289 291 293 295 290 290 290 291 295 297 298 301 303 307 308
308 308 307 306 305 304 303 302 302 302 302 301 301 302 302 302 302 302 298 301 303 295 286 293 304 301 306 308 306 305 301 297 294 290 287 288 286 294 290 292 290 292 294 290 289 291 293 295 296 296 297 299 299 300
307 308 306 305 304 303 302 301 301 301 300 301 302 302 301 302 302 302 302 303 303 295 288 291 299 304 307 308 305 306 305 299 294 288 288 288 293 293 297 294 287 294 292 290 286 292 294 295 297 298 297 296 298 299
307 306 305 304 303 302 301 301 301 300 301 302 302 302 302 302 302 300 295 303 307 303 293 288 300 301 306 306 305 305 305 299 294 290 290 295 299 297 292 287 291 295 296 296 292 297 298 300 302 301 298 299 299 298
306 305 304 303 302 301 300 300 300 301 301 301 302 302 302 302 301 296 296 300 303 304 293 287 292 302 305 307 308 306 304 299 297 296 295 297 300 301 293 288 294 297 298 298 299 299 297 300 298 302 301 302 303 302
305 304 303 301 300 300 300 300 300 300 301 301 302 302 303 303 302 298 303 305 306 299 294 287 291 297 306 299 300 309 302 301 300 298 300 299 301 298 290 293 296 299 300 302 302 303 301 302 301 299 301 300 299 299
304 303 301 300 300 299 299 299 300 300 301 302 303 303 304 302 299 303 307 306 310 299 291 291 289 289 302 299 302 304 306 295 303 297 300 301 297 290 293 296 298 300 300 299 301 301 301 300 300 300 299 298 297 297
302 301 299 299 299 299 299 299 300 301 302 303 303 301 297 303 302 305 301 298 297 296 294 290 296 292 296 294 297 299 302 297 293 297 303 296 292 298 302 302 303 302 302 302 299 298 298 297 297 296 296 297 297 297
301 300 299 299 299 299 299 299 300 301 303 301 297 296 302 306 302 300 294 293 295 291 294 295 296 293 297 290 292 298 296 298 291 295 295 294 293 298 302 302 303 303 303 302 301 300 300 299 297 296 296 296 296 296
300 299 298 298 299 299 299 300 301 302 299 297 296 300 300 298 296 292 292 295 294 292 297 295 297 299 298 297 293 297 294 297 289 299 295 290 296 301 301 301 302 302 301 299 299 297 297 297 297 296 296 295 294 294
298 298 298 298 299 299 299 300 300 300 301 300 297 292 293 294 286 286 286 290 293 300 301 298 295 300 299 297 294 295 292 293 302 294 291 296 300 301 301 301 301 301 299 298 297 297 297 296 296 296 294 293 292 290
297 298 298 298 299 299 300 300 300 300 298 292 290 285 289 288 290 292 293 296 298 299 298 298 296 297 300 296 298 292 297 298 291 289 290 297 300 301 302 302 300 298 298 297 296 296 296 295 294 294 293 291 289 286
298 298 298 299 300 299 299 299 300 300 295 290 291 285 289 295 296 298 298 298 300 301 300 298 298 300 297 296 298 296 292 289 292 292 297 301 302 301 301 301 299 299 298 297 297 296 296 295 294 292 291 289 288 287
298 298 298 300 298 298 299 300 300 298 294 291 291 290 294 294 294 296 297 296 302 301 301 300 295 293 294 296 294 292 291 290 295 300 302 303 302 303 302 301 301 300 299 298 297 297 296 294 292 290 290 288 288 288
296 298 301 299 298 299 299 298 297 292 291 290 291 295 294 294 294 296 299 300 306 301 294 296 291 291 298 294 293 298 295 299 303 302 303 304 303 303 302 301 300 300 299 298 297 296 295 294 293 290 287 287 288 289
297 299 299 298 299 299 298 297 293 290 287 292 291 294 296 297 297 298 299 303 302 299 297 294 295 292 292 291 294 299 303 305 304 304 303 303 303 303 302 301 301 300 299 298 297 296 295 293 291 289 289 289 290 289
299 298 298 298 298 296 293 293 295 289 291 295 297 297 297 298 299 300 300 302 305 304 299 294 290 290 295 301 301 302 303 302 300 301 303 304 305 303 302 301 301 300 299 298 296 295 294 293 291 290 290 291 289 290
297 297 298 298 298 294 290 292 299 294 291 296 297 296 296 297 299 300 300 301 301 299 295 294 296 298 299 302 306 305 305 305 302 301 301 301 302 302 302 301 300 300 299 298 296 294 293 292 292 292 291 290 290 289
298 299 300 300 297 296 293 293 293 295 295 294 297 297 296 299 298 298 299 303 297 296 296 301 303 304 307 307 310 310 308 306 303 302 300 299 302 301 301 301 301 299 298 298 294 292 293 292 292 291 291 290 290 290
298 297 298 298 294 294 293 296 292 296 294 294 295 296 295 294 297 300 303 298 298 301 303 303 304 304 305 306 308 308 307 306 306 303 299 299 301 300 300 300 299 297 298 298 296 294 293 293 292 291 289 289 289 289
298 298 296 295 290 290 288 297 292 294 290 293 296 293 294 297 298 302 295 296 299 304 306 304 306 308 307 307 307 306 307 306 303 303 303 303 303 302 302 301 299 298 297 298 298 296 294 290 291 291 291 289 288 288
295 293 290 290 290 286 293 291 294 292 293 292 291 290 292 293 295 296 292 293 301 304 304 306 308 307 306 306 303 304 306 306 304 304 304 303 301 301 301 299 299 300 300 299 298 296 294 294 291 292 291 289 289 288
287 287 289 284 291 288 288 289 290 291 289 292 291 290 294 298 293 289 292 296 300 301 302 304 306 307 304 304 305 307 308 305 303 302 304 304 302 300 299 300 300 301 301 299 297 296 295 294 294 293 292 290 290 289
283 288 286 287 289 288 289 287 289 290 291 291 292 296 298 294 290 288 294 299 300 301 302 302 302 306 307 307 303 302 306 308 307 303 305 304 303 300 299 298 298 299 302 301 299 297 295 295 294 293 292 291 287 290
282 285 291 295 293 293 292 293 294 292 290 289 294 293 293 289 289 292 300 303 302 304 303 304 305 305 303 305 311 308 309 309 308 306 307 306 305 305 303 301 300 302 304 303 301 299 297 296 296 295 294 293 292 292
287 289 287 291 291 293 289 290 291 290 292 298 296 291 289 289 290 297 301 306 305 307 305 305 304 304 302 305 306 309 307 309 311 310 308 306 307 306 307 307 307 290 305 305 304 302 300 298 298 297 296 294 293 294
288 291 291 289 290 290 291 290 292 297 300 298 294 292 293 296 299 303 303 308 307 305 303 300 301 303 304 306 306 306 307 308 307 303 301 300 302 304 308 307 307 306 306 304 289 297 302 300 299 298 298 297 297 297
289 293 290 290 289 288 293 298 298 301 301 301 300 299 298 298 302 305 304 304 304 302 303 304 304 303 301 300 300 300 302 303 305 304 300 299 302 308 306 307 308 308 307 306 304 302 286 297 293 299 298 298 297 296
294 294 290 291 290 294 298 301 301 301 300 299 298 297 296 297 300 303 304 304 304 302 301 300 300 301 301 300 300 299 298 301 300 302 303 301 303 304 306 308 308 309 309 307 305 303 301 300 300 298 298 297 297 296
292 290 290 288 292 298 300 299 297 294 291 292 294 297 297 297 294 298 302 303 301 299 292 297 298 297 300 301 301 301 289 300 300 299 297 299 303 304 304 304 306 307 308 306 306 304 303 301 300 299 298 298 298 298
292 293 293 292 292 292 296 294 293 291 290 292 295 298 298 296 292 296 302 303 302 299 299 300 300 300 300 299 300 300 292 302 296 286 286 285 285 289 296 301 301 303 303 304 305 305 304 303 301 301 301 300 299 300
Wind_Speed
12 12 8 7 7 7 7 8 10 11 11 13 13 13 14 15 15 11 10 11 8 6 14 23 21 17 15 15 11 15 9 3 4 5 4 4 4 3 5 4 3 3 3 1 3 3 3 20 14 8 10 11 7 17
13 11 8 7 7 7 7 8 10 10 12 12 13 15 15 15 15 13 11 10 4 4 11 23 25 28 28 26 14 3 6 7 3 3 3 5 5 4 6 3 3 2 4 2 5 4 10 9 10 14 13 14 8 5
13 10 8 6 7 8 9 8 9 10 12 12 15 15 16 16 15 12 10 11 6 6 10 12 17 14 9 16 11 7 3 4 3 2 2 3 6 3 4 4 5 4 6 3 4 5 12 10 9 13 15 17 19 16
12 10 6 6 8 7 8 9 10 11 12 14 15 16 17 16 16 14 10 10 2 3 5 8 14 25 22 15 14 12 12 5 4 3 3 3 5 4 4 3 4 4 3 3 3 3 5 12 12 13 17 19 19 21
11 8 7 8 6 7 8 9 10 11 13 15 17 16 16 16 16 12 10 9 8 3 5 12 26 12 10 8 10 6 7 5 3 2 3 4 4 3 1 5 6 6 1 3 3 7 4 10 12 14 21 18 17 21
10 8 8 7 7 7 8 10 11 13 14 17 17 18 16 15 11 5 4 3 5 2 4 7 11 14 11 9 11 8 5 4 3 3 4 4 5 3 3 4 11 18 14 6 5 9 12 13 16 18 21 19 21 20
9 8 7 7 7 7 9 11 12 14 16 18 19 18 17 14 8 5 5 2 8 6 3 6 7 3 10 5 2 3 5 3 3 3 3 4 1 3 3 3 3 11 7 4 5 9 13 13 12 17 18 16 17 17
9 9 8 6 7 8 10 12 14 16 18 20 21 20 17 14 12 9 10 15 11 2 2 4 7 8 6 7 2 2 3 1 5 2 4 1 2 4 4 9 2 1 13 6 8 14 15 17 17 17 13 12 15 17
10 8 7 5 7 9 11 12 15 18 20 21 21 25 8 5 3 2 6 6 2 3 3 4 4 6 10 9 6 2 3 3 4 3 3 3 5 5 4 5 5 7 11 14 14 14 14 16 15 15 16 13 13 13
9 8 6 6 8 9 11 13 15 19 23 23 10 4 3 2 2 6 3 3 4 3 2 5 5 5 6 4 4 4 3 1 2 3 3 5 2 6 6 5 7 8 9 10 12 13 13 12 13 13 13 12 11 10
9 7 6 7 7 9 11 12 14 17 14 4 4 2 6 3 4 3 4 5 6 5 6 5 7 6 3 3 4 4 3 3 2 3 3 2 4 8 11 10 9 11 12 14 14 14 13 11 10 10 10 10 10 10
8 7 7 6 7 9 10 12 12 6 3 8 8 10 4 4 4 6 5 4 7 2 6 4 4 4 3 2 4 4 4 2 4 5 5 3 6 11 11 12 12 12 13 13 13 13 12 11 10 10 9 9 9 8
7 6 6 7 8 8 9 10 8 10 13 4 3 3 4 4 3 6 6 4 2 0 2 4 4 4 4 4 4 5 3 5 2 3 3 3 9 10 11 11 12 12 12 12 11 11 11 11 11 10 9 9 9 8
6 6 7 8 9 10 10 8 9 10 5 3 4 5 6 5 6 5 4 5 4 5 6 5 6 1 3 3 5 4 6 2 1 2 3 9 10 11 11 10 11 11 10 10 9 9 9 9 10 10 10 9 7 5
6 7 7 11 10 3 3 6 10 7 4 4 4 6 7 7 4 4 4 4 7 5 6 5 5 4 5 6 4 4 4 2 2 2 6 10 12 10 10 10 11 9 8 8 8 8 8 8 9 9 8 8 5 4
6 10 10 8 7 5 6 11 9 3 3 5 6 8 8 6 8 5 5 5 7 5 6 4 3 3 5 4 4 3 4 4 3 4 10 10 11 9 8 10 8 9 8 8 8 9 8 8 8 9 8 6 5 3
4 3 12 10 7 8 9 4 3 5 6 5 7 8 11 7 5 7 7 5 4 6 1 4 4 2 6 5 2 4 4 5 7 8 7 9 10 9 10 9 9 8 8 8 8 7 7 7 7 7 6 4 3 5
4 10 9 1 6 4 2 5 3 5 8 9 10 10 7 7 6 5 7 3 3 2 1 2 3 4 5 5 4 5 7 6 7 8 8 9 8 8 8 9 9 8 8 8 9 7 7 6 5 6 4 3 4 6
5 6 7 4 5 3 3 5 6 6 9 9 7 7 5 6 6 7 6 4 2 2 2 1 3 4 4 3 4 4 5 4 7 5 7 8 8 9 9 9 8 8 8 8 6 5 6 8 5 4 2 2 3 5
12 13 12 7 4 3 5 4 5 6 6 4 5 6 7 6 7 6 5 4 4 3 3 4 4 2 3 5 2 4 4 7 8 9 9 6 5 6 8 8 7 8 7 8 8 5 5 4 5 4 4 4 4 5
6 3 5 7 3 6 5 4 5 5 6 5 7 5 6 6 5 5 6 5 4 4 4 5 3 4 7 5 5 4 5 7 7 8 8 8 6 6 5 6 6 5 8 4 7 6 4 5 4 4 5 4 5 6
1 3 2 4 4 5 5 7 6 4 5 8 8 8 7 7 4 2 3 4 3 4 2 3 2 6 6 6 3 6 7 6 7 6 9 9 7 6 6 5 5 4 10 5 5 5 6 6 5 5 6 6 5 5
3 5 4 5 5 3 8 6 5 5 5 4 6 6 4 1 2 4 2 1 2 4 3 4 5 8 5 3 10 8 6 6 4 7 8 7 8 6 5 5 4 3 7 7 6 7 7 8 6 6 7 7 6 6
2 4 5 4 7 5 4 6 5 5 5 9 8 9 4 4 6 2 2 2 2 1 2 6 6 4 3 7 6 5 5 6 4 4 5 7 7 7 5 5 5 6 6 7 8 7 8 7 9 6 6 6 5 7
4 5 4 4 5 5 6 6 10 6 8 8 10 6 4 2 1 1 1 2 3 3 2 3 4 2 3 4 2 0 6 8 5 5 3 6 8 6 6 5 6 7 5 7 7 8 8 7 8 9 9 6 5 5
5 6 6 7 5 7 5 5 5 6 8 5 5 3 5 3 3 1 2 2 4 4 4 4 4 5 2 5 4 6 5 3 7 5 4 6 8 7 7 7 7 7 6 8 7 9 9 8 7 10 8 10 8 7
5 6 7 7 6 5 5 6 8 5 4 4 2 3 2 2 3 2 0 3 4 6 6 4 3 4 5 7 5 4 1 6 4 5 4 5 7 7 7 6 6 7 9 10 9 9 10 10 9 8 9 8 8 7
6 5 8 7 7 7 8 6 7 6 2 2 3 5 3 4 2 1 2 3 6 5 6 6 6 5 4 7 10 7 6 4 2 4 4 5 6 5 5 5 6 8 9 9 10 10 10 9 9 9 10 9 9 8
6 6 6 9 7 5 6 7 6 4 4 4 3 3 2 2 1 2 3 5 5 3 5 4 3 2 4 5 6 7 8 8 8 5 8 5 5 4 4 6 6 7 7 9 4 6 12 10 9 9 9 8 9 8
9 8 6 7 9 6 8 2 3 1 3 3 2 7 6 4 1 3 2 6 5 3 4 6 6 4 7 5 4 6 8 9 9 7 8 6 6 5 4 5 4 3 1 7 8 7 6 8 6 7 8 8 8 8
3 4 7 9 8 7 2 4 2 7 3 1 2 2 5 5 3 3 3 3 3 4 4 5 6 6 6 6 5 5 6 6 8 8 6 2 6 7 7 6 4 1 1 2 6 9 10 9 10 11 11 11 12 10
5 8 6 9 6 1 4 2 2 3 1 2 4 5 5 5 4 3 3 2 3 4 4 6 6 6 7 7 6 6 5 7 5 4 7 6 5 5 5 6 6 5 4 1 4 4 12 13 11 11 12 14 13 14
9 7 8 7 6 5 2 4 3 1 1 2 5 7 5 3 4 2 2 3 4 5 5 5 4 6 6 6 5 3 2 2 8 7 6 4 3 4 6 7 6 6 7 5 5 3 8 11 12 14 14 14 14 13
Wind_Direction
298 303 287 275 262 268 275 291 298 304 311 308 313 315 318 316 316 310 292 295 283 272 289 278 290 283 279 288 276 295 321 74 317 344 323 354 281 276 267 28 358 218 248 268 245 306 9 344 338 14 308 303 228 144
292 292 265 255 259 262 267 289 298 304 305 309 311 316 312 311 310 310 290 290 301 258 276 291 281 276 267 265 277 291 251 306 286 306 328 315 288 292 322 4 15 46 15 28 21 14 307 336 336 338 15 57 84 57
292 288 262 239 251 251 266 283 294 300 304 304 314 310 308 309 311 307 294 291 298 272 285 266 294 292 288 230 236 248 242 173 190 162 304 284 281 298 310 24 312 39 23 77 211 340 347 7 7 25 35 55 75 79
292 285 252 239 239 256 281 293 297 302 310 310 304 305 308 309 308 304 284 287 270 284 282 289 305 307 300 286 258 219 240 123 146 151 236 265 273 299 315 315 357 343 18 63 73 317 322 43 43 44 61 58 69 69
285 261 233 244 245 268 283 291 298 307 306 301 300 303 308 309 310 302 276 260 251 192 296 301 297 298 300 219 237 237 192 152 154 177 225 244 257 262 180 8 7 353 250 35 75 308 37 62 57 57 68 69 69 84
259 229 236 237 251 272 287 295 302 304 301 303 305 308 311 312 319 313 298 36 35 110 292 301 347 295 303 270 255 256 209 120 149 189 230 230 227 265 43 37 33 48 53 79 101 88 74 66 67 66 68 70 71 72
227 222 228 246 267 281 288 300 302 301 302 303 301 303 303 299 287 250 301 297 300 319 289 294 274 288 306 350 17 268 116 163 177 229 239 248 309 198 41 53 348 113 118 160 166 161 104 87 93 89 82 78 84 83
211 212 222 242 271 286 299 302 305 306 304 300 299 300 296 289 272 255 251 254 253 200 220 277 281 284 18 336 321 239 174 153 202 252 253 260 265 95 77 146 308 251 173 183 133 98 100 113 112 100 89 83 89 92
207 206 223 252 274 287 298 306 308 307 304 299 301 297 274 212 216 231 160 188 199 204 260 228 273 312 355 328 314 3 227 219 121 263 301 67 41 47 150 142 180 126 123 112 108 101 91 85 81 85 94 85 81 80
202 207 223 250 272 292 307 307 311 310 306 301 284 234 231 107 236 231 187 225 190 188 229 261 305 278 346 334 294 296 280 342 202 256 70 107 55 177 160 164 107 124 117 103 101 97 88 79 77 78 71 69 75 70
202 212 234 259 286 299 305 310 313 321 299 326 272 329 340 266 258 232 236 215 181 213 201 236 248 267 146 270 307 289 321 234 259 169 108 116 109 128 137 123 95 96 87 80 77 73 70 78 85 81 75 69 63 66
205 223 247 271 286 297 304 310 312 287 317 323 303 293 284 264 221 246 234 217 210 226 168 225 257 215 185 202 264 267 257 274 244 147 126 110 138 140 120 111 105 99 94 91 89 87 78 73 76 70 62 58 57 51
209 234 259 274 285 290 294 306 320 309 294 260 231 248 233 234 248 232 236 225 199 144 335 280 296 176 165 209 246 259 268 251 115 105 112 131 140 128 124 123 113 105 103 104 103 98 93 82 64 55 77 59 51 46
220 244 264 275 277 278 280 291 311 311 285 247 236 247 231 209 236 238 319 334 330 310 325 330 299 151 280 234 241 256 251 256 145 68 74 131 130 128 135 127 130 120 109 99 89 79 73 75 76 59 62 61 65 46
238 258 268 268 269 239 230 281 288 277 258 259 237 242 228 252 274 295 289 296 336 318 310 311 281 209 224 245 236 255 258 107 116 99 128 132 131 145 141 141 125 124 121 102 83 71 65 66 77 71 61 86 66 96
266 280 235 198 192 219 272 276 262 255 243 243 239 252 256 286 296 285 295 304 272 301 281 276 289 270 256 252 245 249 321 58 86 112 120 138 135 151 133 124 134 111 104 95 78 64 61 62 69 74 70 72 64 63
273 239 156 176 222 253 262 270 228 219 249 232 235 228 267 277 278 285 295 305 334 292 339 279 272 297 295 263 295 21 30 83 120 122 119 123 149 129 130 128 118 115 110 101 90 71 75 70 72 77 77 97 103 81
238 116 120 78 304 309 212 214 249 245 241 247 257 247 213 240 253 266 284 298 300 356 311 337 320 288 287 311 17 48 58 83 91 109 126 133 136 133 133 134 128 122 115 101 86 80 61 49 47 76 95 134 110 96
314 330 340 342 346 294 230 209 228 252 241 267 251 270 236 243 236 251 258 263 253 137 158 172 263 255 289 350 16 76 68 66 106 99 120 133 129 135 129 129 127 130 122 94 72 69 81 53 51 87 92 98 101 106
273 279 280 282 258 249 242 237 217 248 268 287 291 262 241 239 241 223 233 242 222 149 230 235 240 227 263 332 343 108 128 136 143 150 142 136 131 132 142 165 150 136 137 129 98 131 114 98 90 78 57 65 95 97
250 254 175 197 215 239 277 268 234 252 272 257 276 281 249 240 244 228 228 207 203 218 242 220 281 311 299 272 257 149 202 199 163 144 158 150 140 142 161 123 146 186 139 130 119 109 96 79 102 91 108 100 99 99
119 252 267 189 235 236 242 239 245 276 267 267 264 255 253 251 237 226 245 186 228 231 262 304 326 303 299 295 168 167 176 168 134 127 125 137 155 157 150 200 177 144 128 140 124 130 116 115 117 118 111 112 106 108
269 219 233 212 229 225 259 248 240 235 251 261 240 240 189 97 17 294 195 222 236 263 268 284 274 261 268 230 135 166 171 126 151 129 155 149 158 163 137 202 114 129 114 109 107 108 105 113 124 126 126 127 122 121
174 247 237 227 203 255 247 208 216 249 252 260 269 258 117 126 220 236 122 242 220 168 269 308 298 259 223 173 129 149 163 120 138 129 146 147 139 148 135 130 141 105 109 118 121 124 143 131 132 145 142 134 150 146
229 232 194 256 248 238 255 237 232 232 248 245 248 265 124 223 121 55 271 74 79 101 193 322 327 248 174 105 274 227 158 151 153 153 200 136 114 128 134 134 124 123 142 131 143 141 141 155 153 159 145 153 144 138
236 214 198 216 232 221 240 260 252 240 261 271 256 138 134 216 122 312 77 104 79 56 20 351 346 346 290 135 177 234 188 208 145 166 190 150 141 152 154 162 157 152 162 152 166 153 148 165 164 147 157 156 161 168
246 242 213 247 266 270 276 281 290 267 263 281 342 265 213 129 76 54 32 117 79 60 65 359 66 50 48 328 360 13 257 150 179 155 191 152 146 152 163 175 176 161 164 167 170 169 165 165 162 172 152 157 174 189
246 288 254 239 245 253 263 268 277 261 260 344 330 32 51 27 72 62 10 56 92 71 77 86 42 51 40 6 356 12 0 291 202 188 210 163 138 142 127 112 113 137 157 172 177 173 176 180 178 179 165 169 173 184
232 239 261 262 259 247 251 251 260 9 14 11 34 74 75 72 274 323 70 112 98 94 104 98 80 79 58 79 24 27 27 19 13 220 160 152 125 102 97 144 160 178 168 158 142 175 176 180 185 181 182 176 170 180
242 214 230 235 231 237 234 341 329 75 53 2 25 99 105 120 147 293 66 135 163 159 145 145 161 187 112 93 65 48 43 41 38 53 62 33 358 4 18 334 57 22 352 152 167 149 114 149 145 172 182 181 171 180
262 220 238 252 260 251 313 228 105 84 45 34 295 254 139 132 124 39 24 44 69 87 80 62 55 43 60 79 102 84 65 37 26 35 60 36 355 3 349 348 360 280 74 358 183 166 177 194 187 194 196 199 189 188
215 223 233 251 267 252 253 267 78 85 101 228 194 208 159 158 124 97 10 3 92 79 60 68 68 50 31 20 40 76 166 153 148 77 28 359 16 6 344 329 347 11 320 18 341 244 179 195 202 200 204 206 210 193
219 221 231 246 250 218 107 53 336 129 221 244 194 184 159 115 93 65 5 34 68 87 61 47 30 55 50 13 358 344 246 358 107 112 125 105 77 359 316 338 346 338 330 333 306 343 340 225 216 213 208 209 209 212